Location: Kavul?ru
(16.6288°N, 80.5832°E)
Time: 20:23:08
(UTC+00:00)

Cosmos 1536 Rocket - Pass Details

Date: 15 May 2026
Orbit: 599 x 624 km, 82.5° (Epoch: 8 June)

Event Time Altitude Azimuth Distance (km) Brightness Sun altitude
Rises 14:32:58 0° 350° (N) 2,876 7.5 -20.9°
Reaches altitude 10° 14:35:12 10° 347° (NNW) 1,974 6.7 -21.3°
Maximum altitude 14:39:31 63° 266° (W) 693 3.9 -22.3°
Enters shadow 14:41:33 30° 196° (SSW) 1,115 4.7 -22.7°
